Homestead, FL

11:40 PM EST on February 12, 2016 (GMT -0500)
Dade County-Homestead Regional

Weather History for KHST - April, 2013

Change the Weather History Date:

Tuesday, April 30, 2013

  Actual Average Record
Temperature  
Mean Temperature 76 °F -  
Max Temperature 80 °F 85 °F 93 °F (1945)
Min Temperature 71 °F 62 °F 52 °F (1938)
Cooling Degree Days 10    
Growing Degree Days 26 (Base 50)    
Moisture  
Dew Point 71 °F    
Average Humidity 88    
Maximum Humidity 96    
Minimum Humidity 74    
Precipitation  
Precipitation 0.00 in - - ()
Sea Level Pressure  
Sea Level Pressure 29.97 in    
Wind  
Wind Speed 8 mph (ENE)    
Max Wind Speed 16 mph    
Max Gust Speed 22 mph    
Visibility 6 miles    
Events Fog , Rain , Thunderstorm    
Averages and records for this station are not official NWS values.
T = Trace of Precipitation, MM = Missing Value Source: NWS Daily Summary

Daily Weather History Graph

Daily Weather History Graph

Search for Another Location

Airport or City:

Trip Planner

Search our weather history database for the weather conditions in past years. The results will help you decide how hot, cold, wet, or windy it might be!

Date:

Astronomy

Apr. 30, 2013 Rise Set
Actual Time 6:45 AM EDT 7:51 PM EDT
Civil Twilight 6:21 AM EDT 8:16 PM EDT
Nautical Twilight 5:53 AM EDT 8:44 PM EDT
Astronomical Twilight 5:23 AM EDT 9:14 PM EDT
Moon 12:06 AM EDT (4/30) 11:18 AM EDT (4/30)
Length of Visible Light 13h 54m
Length of Day
13h 06m
Waning Gibbous, 70% of the Moon is Illuminated
Apr 30
Waning Gibbous
May 2
Last Quarter
May 9
New
May 18
First Quarter
May 25
Full

Hourly Weather History & Observations

Time (EDT) Temp. Heat Index Dew Point Humidity Pressure Visibility Wind Dir Wind Speed Gust Speed Precip Events Conditions
12:58 AM 75.6 °F - 70.9 °F 85% 29.98 in 10.0 mi SSE 4.6 mph - N/A   Clear
1:58 AM 75.2 °F - 71.1 °F 87% 29.96 in 10.0 mi SSE 3.5 mph - N/A   Mostly Cloudy
2:03 AM 75.2 °F - 71.6 °F 89% 29.95 in 10.0 mi SSE 4.6 mph - N/A   Mostly Cloudy
2:08 AM 75.2 °F - 71.6 °F 89% 29.95 in 10.0 mi SE 4.6 mph - N/A   Scattered Clouds
2:58 AM 74.8 °F - 70.0 °F 85% 29.95 in 10.0 mi SE 4.6 mph - N/A   Partly Cloudy
3:58 AM 75.2 °F - 70.3 °F 85% 29.95 in 10.0 mi SE 6.9 mph - N/A   Partly Cloudy
4:58 AM 74.7 °F - 70.9 °F 88% 29.94 in 10.0 mi SE 5.8 mph - N/A   Clear
5:58 AM 74.5 °F - 71.2 °F 90% 29.95 in 10.0 mi SSE 5.8 mph - N/A   Partly Cloudy
6:58 AM 73.2 °F - 69.8 °F 89% 29.97 in 10.0 mi SSE 4.6 mph - N/A   Clear
7:58 AM 77.0 °F - 71.2 °F 82% 29.99 in 10.0 mi SSE 5.8 mph - N/A   Clear
8:37 AM 80.6 °F 84.6 °F 71.6 °F 74% 29.99 in 10.0 mi SSE 9.2 mph - N/A   Light Drizzle
8:47 AM 80.6 °F 84.6 °F 71.6 °F 74% 29.99 in 10.0 mi SSE 6.9 mph - N/A   Scattered Clouds
8:58 AM 80.6 °F 84.6 °F 71.6 °F 74% 30.00 in 10.0 mi South 6.9 mph - 0.00 in   Mostly Cloudy
9:13 AM 78.8 °F - 71.6 °F 78% 29.99 in 10.0 mi South 10.4 mph - N/A   Scattered Clouds
9:42 AM 78.8 °F - 71.6 °F 78% 30.00 in 10.0 mi SSE 8.1 mph - N/A Rain Light Rain
9:44 AM 78.8 °F - 71.6 °F 78% 30.00 in 10.0 mi SSE 8.1 mph - N/A   Scattered Clouds
9:58 AM 79.3 °F - 72.5 °F 79% 30.01 in 10.0 mi South 5.8 mph - 0.00 in   Scattered Clouds
10:15 AM 78.8 °F - 73.4 °F 83% 30.00 in 9.0 mi SSE 5.8 mph - N/A Rain Light Rain
10:32 AM 77.0 °F - 73.4 °F 89% 30.00 in 10.0 mi South 4.6 mph - N/A   Partly Cloudy
11:55 AM 78.8 °F - 73.4 °F 83% 29.99 in 10.0 mi SE 6.9 mph - N/A   Scattered Clouds
12:16 PM 78.8 °F - 71.6 °F 78% 29.99 in 10.0 mi SSE 5.8 mph - N/A   Light Drizzle
12:32 PM 77.0 °F - 73.4 °F 89% 29.99 in 2.5 mi WNW 9.2 mph - N/A Rain Heavy Rain
12:34 PM 77.0 °F - 73.4 °F 89% 29.98 in 2.5 mi WNW 8.1 mph - N/A Rain Light Rain
12:38 PM 77.0 °F - 73.4 °F 89% 29.98 in 4.0 mi NW 8.1 mph - N/A Rain Light Rain
12:41 PM 75.2 °F - 71.6 °F 89% 29.98 in 6.0 mi NW 8.1 mph - N/A Rain , Thunderstorm Light Thunderstorms and Rain
12:45 PM 75.2 °F - 71.6 °F 89% 29.98 in 2.5 mi WNW 8.1 mph - N/A Rain , Thunderstorm Heavy Thunderstorms and Rain
12:52 PM 75.2 °F - 71.6 °F 89% 29.99 in 0.5 mi WSW 12.7 mph 19.6 mph N/A Fog , Rain , Thunderstorm Heavy Thunderstorms and Rain
12:55 PM 73.4 °F - 71.6 °F 94% 29.99 in 0.2 mi Variable 5.8 mph 19.6 mph N/A Fog , Rain , Thunderstorm Heavy Thunderstorms and Rain
12:57 PM 73.4 °F - 69.8 °F 88% 29.99 in 0.2 mi NE 6.9 mph 19.6 mph N/A Fog , Rain , Thunderstorm Heavy Thunderstorms and Rain
12:59 PM 73.4 °F - 69.8 °F 88% 29.99 in 0.2 mi NE 9.2 mph 19.6 mph N/A Fog , Rain , Thunderstorm Heavy Thunderstorms and Rain
1:03 PM 73.4 °F - 71.6 °F 94% 29.98 in 0.5 mi NE 6.9 mph 19.6 mph N/A Fog , Rain , Thunderstorm Heavy Thunderstorms and Rain
1:07 PM 73.4 °F - 71.6 °F 94% 29.98 in 1.0 mi NNE 11.5 mph - N/A Rain , Thunderstorm Heavy Thunderstorms and Rain
1:11 PM 73.4 °F - 71.6 °F 94% 29.98 in 1.2 mi NE 16.1 mph - N/A Rain , Thunderstorm Heavy Thunderstorms and Rain
1:17 PM 71.6 °F - 68.0 °F 88% 29.98 in 1.2 mi North 12.7 mph - N/A Rain , Thunderstorm Heavy Thunderstorms and Rain
1:19 PM 71.6 °F - 68.0 °F 88% 29.98 in 1.5 mi North 12.7 mph - N/A Rain , Thunderstorm Heavy Thunderstorms and Rain
1:21 PM 71.6 °F - 68.0 °F 88% 29.98 in 1.8 mi North 11.5 mph - N/A Rain , Thunderstorm Heavy Thunderstorms and Rain
1:24 PM 71.6 °F - 68.0 °F 88% 29.97 in 2.0 mi North 12.7 mph - N/A Rain Light Rain
1:28 PM 71.6 °F - 68.0 °F 88% 29.98 in 5.0 mi NNE 12.7 mph - N/A Rain Light Rain
1:33 PM 71.6 °F - 68.0 °F 88% 29.99 in 8.0 mi North 9.2 mph - N/A Rain Light Rain
1:38 PM 71.6 °F - 68.0 °F 88% 29.98 in 2.5 mi ENE 6.9 mph - N/A Rain Heavy Rain
1:40 PM 71.6 °F - 68.0 °F 88% 29.98 in 2.0 mi ENE 9.2 mph - N/A Rain Heavy Rain
1:43 PM 71.6 °F - 68.0 °F 88% 29.97 in 2.0 mi NE 10.4 mph - N/A Rain , Thunderstorm Light Rain
1:46 PM 71.6 °F - 68.0 °F 88% 29.97 in 3.0 mi NE 10.4 mph - N/A Rain , Thunderstorm Light Thunderstorms and Rain
1:48 PM 71.6 °F - 68.0 °F 88% 29.97 in 4.0 mi ENE 11.5 mph - N/A Rain , Thunderstorm Light Thunderstorms and Rain
1:50 PM 71.6 °F - 69.8 °F 94% 29.97 in 7.0 mi ENE 11.5 mph - N/A Rain , Thunderstorm Light Thunderstorms and Rain
1:52 PM 71.6 °F - 69.8 °F 94% 29.98 in 10.0 mi NE 10.4 mph - N/A Rain , Thunderstorm Light Thunderstorms and Rain
1:55 PM 71.6 °F - 69.8 °F 94% 29.98 in 10.0 mi NE 10.4 mph - N/A Thunderstorm Thunderstorm
1:59 PM 73.4 °F - 69.8 °F 88% 29.98 in 10.0 mi NE 10.4 mph - N/A Rain , Thunderstorm Light Thunderstorms and Rain
2:03 PM 73.4 °F - 69.8 °F 88% 29.98 in 10.0 mi NE 9.2 mph - N/A Rain , Thunderstorm Rain
2:05 PM 73.4 °F - 69.8 °F 88% 29.97 in 8.0 mi NE 11.5 mph - N/A Rain , Thunderstorm Light Rain
2:17 PM 73.4 °F - 69.8 °F 88% 29.97 in 7.0 mi East 12.7 mph - N/A Rain , Thunderstorm Light Rain
2:23 PM 73.4 °F - 69.8 °F 88% 29.97 in 10.0 mi ENE 11.5 mph - N/A Thunderstorm Scattered Clouds
2:37 PM 75.2 °F - 68.0 °F 78% 29.97 in 10.0 mi ENE 6.9 mph - N/A Thunderstorm Partly Cloudy
2:46 PM 75.2 °F - 69.8 °F 83% 29.98 in 9.0 mi East 11.5 mph 17.3 mph N/A Rain , Thunderstorm Light Rain
2:54 PM 73.4 °F - 69.8 °F 88% 29.97 in 6.0 mi ENE 13.8 mph 21.9 mph N/A Rain Light Rain
2:55 PM 73.4 °F - 69.8 °F 88% 29.97 in 5.0 mi ENE 16.1 mph 21.9 mph N/A Rain Light Rain
2:59 PM 73.4 °F - 69.8 °F 88% 29.97 in 5.0 mi ENE 15.0 mph 21.9 mph N/A Rain Heavy Rain
3:21 PM 73.4 °F - 69.8 °F 88% 29.98 in 4.0 mi NE 13.8 mph - N/A Rain Heavy Rain
3:23 PM 73.4 °F - 69.8 °F 88% 29.98 in 2.5 mi NE 12.7 mph - N/A Rain Heavy Rain
3:25 PM 73.4 °F - 69.8 °F 88% 29.98 in 2.0 mi NE 13.8 mph - N/A Rain Heavy Rain
3:29 PM 71.6 °F - 69.8 °F 94% 29.97 in 1.8 mi NE 12.7 mph - N/A Rain Heavy Rain
3:33 PM 71.6 °F - 69.8 °F 94% 29.98 in 2.0 mi NNE 11.5 mph - N/A Rain Heavy Rain
3:45 PM 71.6 °F - 69.8 °F 94% 29.97 in 1.5 mi ENE 8.1 mph - N/A Rain Heavy Rain
3:49 PM 71.6 °F - 69.8 °F 94% 29.96 in 1.0 mi NE 12.7 mph - N/A Rain Heavy Rain
3:50 PM 71.6 °F - 69.8 °F 94% 29.96 in 1.0 mi ENE 12.7 mph - N/A Rain Heavy Rain
3:54 PM 73.4 °F - 69.8 °F 88% 29.95 in 1.0 mi ENE 13.8 mph - N/A Rain Light Rain
3:55 PM 73.4 °F - 69.8 °F 88% 29.95 in 1.2 mi East 13.8 mph - N/A Rain Light Rain
3:57 PM 73.4 °F - 69.8 °F 88% 29.95 in 2.0 mi ENE 13.8 mph - N/A Rain Light Rain
3:58 PM 73.4 °F - 69.8 °F 88% 29.95 in 3.0 mi East 12.7 mph - N/A Rain Light Rain
4:00 PM 73.4 °F - 69.8 °F 88% 29.94 in 6.0 mi ENE 15.0 mph - N/A Rain Light Rain
4:03 PM 73.4 °F - 71.6 °F 94% 29.95 in 10.0 mi ENE 12.7 mph - N/A   Light Drizzle
4:08 PM 73.4 °F - 71.6 °F 94% 29.95 in 10.0 mi ENE 12.7 mph - N/A   Scattered Clouds
4:55 PM 73.4 °F - 71.6 °F 94% 29.97 in 10.0 mi NE 5.8 mph - N/A   Light Drizzle
5:07 PM 73.4 °F - 71.6 °F 94% 29.97 in 10.0 mi East 3.5 mph - N/A   Clear
5:15 PM 73.4 °F - 71.6 °F 94% 29.96 in 10.0 mi ENE 4.6 mph - N/A Rain Light Rain
5:29 PM 73.4 °F - 71.6 °F 94% 29.96 in 10.0 mi ENE 4.6 mph - N/A   Clear
5:55 PM 77.0 °F - 71.6 °F 83% 29.96 in 10.0 mi East 8.1 mph - N/A   Clear
6:55 PM 75.2 °F - 71.6 °F 89% 29.97 in 10.0 mi East 4.6 mph - N/A   Clear
7:55 PM 75.2 °F - 71.6 °F 89% 29.97 in 10.0 mi ENE 5.8 mph - N/A   Clear
8:58 PM 74.1 °F - 71.1 °F 90% 29.99 in 10.0 mi ENE 5.8 mph - N/A   Clear
9:58 PM 73.8 °F - 71.8 °F 93% 29.99 in 10.0 mi ESE 6.9 mph - N/A   Clear
10:58 PM 73.2 °F - 71.4 °F 94% 29.99 in 10.0 mi SSE 1.2 mph - N/A   Clear
11:38 PM 71.6 °F - 69.8 °F 94% 29.99 in 7.0 mi South 2.3 mph - N/A   Clear
11:58 PM 71.8 °F - 70.7 °F 96% 29.99 in 9.0 mi Calm Calm - N/A   Clear